Starlink 5663

operational
NORAD ID: 55347 Int'l Des: 2023-013 Owner: SPXS Country: US Constellation: starlink
LEOCIRCULAR

Über Starlink 5663

Beschreibung wird geladen...

Live-Position

3D-Globus wird geladen...

Nächste Überflüge

Höhenverlauf

Altitude vs Time

uPlot chart will show altitude changes over time

Zweizeiliger Elementsatz

1 55347U 23013S 25258.47362716 -.00000216 00000-0 -93862-6 0 9996
2 55347 43.0038 172.2953 0001253 266.9384 93.1315 15.02532817145356
Epoch: 15. Sept. 2025 • Age: 11 hours

Aktueller Status

Höhe 561.3 km
Geschwindigkeit 7.59 km/s
Subsatellitenpunkt 35.02°N, 118.9°W
Startdatum 26. Jan. 2023
Alter 2.6 years
Typ internet

Technische Details

Klassifizierung Payload
Masse 305.00 kg
Trockenmasse 290.00 kg
Gesamtmasse 305.00 kg
Länge 0.20 m
Durchmesser 2.80 m
Spannweite 9.00 m
Form Box + pan
Hersteller SPXS
Bus-Typ Starlink
Phasenstatus In Orbit
Besitzer/Staat SPXS/US

Große Konstellationen

Loading constellations...